Location: Colonia Mina de C?rbuni
(46.1667°N, 22.7167°E)
Time: 09:41:13
(UTC+00:00)

BlueWalker 3 - Pass Details

Date: 29 February 2024
Orbit: 485 x 496 km, 53.2° (Epoch: 12 April)

Event Time Altitude Azimuth Distance (km) Brightness Sun altitude
Rises 16:48:55 0° 296° (WNW) 2,561 6.7 -6.7°
Reaches altitude 10° 16:51:17 10° 307° (NW) 1,677 5.4 -7.2°
Maximum altitude 16:54:40 30° 10° (N) 894 3.1 -7.7°
Enters shadow 16:57:59 10° 73° (ENE) 1,650 3.9 -8.3°
